Back to Top

Language: 

My Weather Underground Personal Weather Station Historical Data with Graphs...

Delerius Weather Station Historical Data
Daily Summary for February 19, 2017 Units:  Metric    English   Both
« Previous Day
Next Day »
Daily Weekly Monthly Yearly Custom
  High: Low: Average:
Temperature: 11.1 °C 7.8 °C 9.7 °C
Dew Point: 9.7 °C 6 °C 7.7 °C
Humidity: 91 % 82 % 88 %
Wind Speed: 24.1 km/h 3.2 km/h 11.7 km/h
Wind Gust: 32.2 km/h - -
Wind:- - West
Pressure: 1020.5 hPa 1016.5 hPa -
Precipitation: 0 mm    
Historical Graphs
 
 
Tabular Data for February 19, 2017
Time Temperature Dew Point Pressure Wind Wind Speed Wind Gust Humidity Rainfall Rate (Hourly) solar Conditions
00:00 10 °C 7.6 °C 1018.2 hPa WSW 16.1 km/h 25.7 km/h 85 % 0 mm 0 W/m2
00:05 9.9 °C 7.6 °C 1018.2 hPa WSW 16.1 km/h 25.7 km/h 85 % 0 mm 0 W/m2
00:15 9.8 °C 7.6 °C 1018.2 hPa WSW 19.3 km/h 29 km/h 86 % 0 mm 0 W/m2
00:20 9.8 °C 7.6 °C 1018.2 hPa West 19.3 km/h 19.3 km/h 86 % 0 mm 0 W/m2
00:25 9.8 °C 7.6 °C 1018.2 hPa WSW 19.3 km/h 20.9 km/h 86 % 0 mm 0 W/m2
00:30 9.8 °C 7.6 °C 1018.2 hPa West 20.9 km/h 22.5 km/h 86 % 0 mm 0 W/m2
00:35 9.8 °C 7.8 °C 1018.2 hPa West 20.9 km/h 24.1 km/h 87 % 0 mm 0 W/m2
00:45 9.8 °C 7.7 °C 1017.5 hPa West 22.5 km/h 22.5 km/h 87 % 0 mm 0 W/m2
00:50 9.8 °C 7.7 °C 1017.5 hPa West 22.5 km/h 22.5 km/h 87 % 0 mm 0 W/m2
00:55 9.8 °C 7.7 °C 1017.5 hPa WSW 20.9 km/h 22.5 km/h 87 % 0 mm 0 W/m2
01:00 9.7 °C 7.7 °C 1017.5 hPa West 20.9 km/h 25.7 km/h 87 % 0 mm 0 W/m2
01:05 9.8 °C 7.6 °C 1017.5 hPa WSW 22.5 km/h 32.2 km/h 86 % 0 mm 0 W/m2
01:10 9.8 °C 7.6 °C 1017.5 hPa West 22.5 km/h 32.2 km/h 86 % 0 mm 0 W/m2
01:15 9.8 °C 7.4 °C 1017.5 hPa WSW 20.9 km/h 32.2 km/h 85 % 0 mm 0 W/m2
01:25 9.7 °C 7.3 °C 1018.2 hPa West 19.3 km/h 32.2 km/h 85 % 0 mm 0 W/m2
01:35 9.6 °C 7.2 °C 1017.8 hPa WNW 14.5 km/h 29 km/h 85 % 0 mm 0 W/m2
01:40 9.6 °C 7.2 °C 1017.8 hPa WNW 17.7 km/h 17.7 km/h 85 % 0 mm 0 W/m2
01:45 9.6 °C 7.2 °C 1017.8 hPa WNW 17.7 km/h 19.3 km/h 85 % 0 mm 0 W/m2
01:50 9.6 °C 7.2 °C 1017.8 hPa West 17.7 km/h 32.2 km/h 85 % 0 mm 0 W/m2
01:55 9.5 °C 7.3 °C 1017.5 hPa West 19.3 km/h 32.2 km/h 86 % 0 mm 0 W/m2
02:00 9.5 °C 7.3 °C 1017.5 hPa West 20.9 km/h 20.9 km/h 86 % 0 mm 0 W/m2
02:05 9.5 °C 7.3 °C 1017.5 hPa WNW 20.9 km/h 22.5 km/h 86 % 0 mm 0 W/m2
02:15 9.5 °C 7.3 °C 1017.8 hPa WSW 19.3 km/h 32.2 km/h 86 % 0 mm 0 W/m2
02:20 9.5 °C 7.3 °C 1017.8 hPa West 17.7 km/h 32.2 km/h 86 % 0 mm 0 W/m2
02:25 9.5 °C 7.3 °C 1017.8 hPa WNW 16.1 km/h 32.2 km/h 86 % 0 mm 0 W/m2
02:30 9.4 °C 7.1 °C 1017.8 hPa NW 14.5 km/h 14.5 km/h 85 % 0 mm 0 W/m2
02:35 9.4 °C 6.9 °C 1017.8 hPa West 19.3 km/h 24.1 km/h 84 % 0 mm 0 W/m2
02:40 9.4 °C 6.7 °C 1017.8 hPa NW 24.1 km/h 24.1 km/h 83 % 0 mm 0 W/m2
02:45 9.4 °C 6.7 °C 1017.8 hPa West 20.9 km/h 32.2 km/h 83 % 0 mm 0 W/m2
02:50 9.3 °C 6.4 °C 1017.8 hPa West 20.9 km/h 20.9 km/h 82 % 0 mm 0 W/m2
03:00 9.1 °C 6.4 °C 1017.8 hPa West 19.3 km/h 19.3 km/h 83 % 0 mm 0 W/m2
03:05 9 °C 6.3 °C 1017.8 hPa West 19.3 km/h 32.2 km/h 83 % 0 mm 0 W/m2
03:10 8.9 °C 6.2 °C 1017.8 hPa WNW 17.7 km/h 17.7 km/h 83 % 0 mm 0 W/m2
03:20 8.8 °C 6.1 °C 1017.8 hPa WNW 17.7 km/h 32.2 km/h 83 % 0 mm 0 W/m2
03:25 8.7 °C 6 °C 1017.8 hPa NW 16.1 km/h 32.2 km/h 83 % 0 mm 0 W/m2
03:35 8.7 °C 6.1 °C 1018.2 hPa WNW 16.1 km/h 32.2 km/h 84 % 0 mm 0 W/m2
03:45 8.7 °C 6.2 °C 1018.2 hPa WNW 16.1 km/h 32.2 km/h 84 % 0 mm 0 W/m2
03:50 8.7 °C 6.2 °C 1018.2 hPa WNW 12.9 km/h 12.9 km/h 84 % 0 mm 0 W/m2
03:55 8.7 °C 6.2 °C 1018.2 hPa WNW 11.3 km/h 32.2 km/h 84 % 0 mm 0 W/m2
04:00 8.7 °C 6.1 °C 1018.2 hPa WNW 12.9 km/h 12.9 km/h 84 % 0 mm 0 W/m2
04:05 8.7 °C 6.1 °C 1018.2 hPa NW 12.9 km/h 32.2 km/h 84 % 0 mm 0 W/m2
04:10 8.6 °C 6.1 °C 1018.2 hPa West 12.9 km/h 12.9 km/h 84 % 0 mm 0 W/m2
04:15 8.6 °C 6 °C 1018.2 hPa WNW 11.3 km/h 32.2 km/h 84 % 0 mm 0 W/m2
04:20 8.6 °C 6 °C 1018.2 hPa WNW 11.3 km/h 32.2 km/h 84 % 0 mm 0 W/m2
04:30 8.5 °C 6.1 °C 1018.2 hPa WNW 9.7 km/h 32.2 km/h 85 % 0 mm 0 W/m2
04:35 8.5 °C 6.1 °C 1018.2 hPa WNW 11.3 km/h 32.2 km/h 85 % 0 mm 0 W/m2
04:40 8.5 °C 6.1 °C 1018.2 hPa NW 11.3 km/h 11.3 km/h 85 % 0 mm 0 W/m2
04:45 8.5 °C 6.1 °C 1018.2 hPa WNW 11.3 km/h 19.3 km/h 85 % 0 mm 0 W/m2
04:50 8.5 °C 6.1 °C 1018.5 hPa WNW 9.7 km/h 9.7 km/h 85 % 0 mm 0 W/m2
04:55 8.5 °C 6.1 °C 1018.5 hPa NW 6.4 km/h 32.2 km/h 85 % 0 mm 0 W/m2
05:00 8.5 °C 6.1 °C 1018.5 hPa NW 4.8 km/h 4.8 km/h 85 % 0 mm 0 W/m2
05:10 8.5 °C 6.1 °C 1018.5 hPa NW 3.2 km/h 32.2 km/h 85 % 0 mm 0 W/m2
05:15 8.5 °C 6.1 °C 1018.5 hPa NW 3.2 km/h 32.2 km/h 85 % 0 mm 0 W/m2
05:25 8.5 °C 6.3 °C 1018.5 hPa WNW 8 km/h 32.2 km/h 86 % 0 mm 0 W/m2
05:30 8.4 °C 6.2 °C 1018.5 hPa NW 8 km/h 32.2 km/h 86 % 0 mm 0 W/m2
05:35 8.4 °C 6.2 °C 1018.8 hPa North 9.7 km/h 32.2 km/h 86 % 0 mm 0 W/m2
05:40 8.4 °C 6.2 °C 1018.5 hPa NW 11.3 km/h 11.3 km/h 86 % 0 mm 0 W/m2
05:45 8.4 °C 6.2 °C 1018.8 hPa WNW 11.3 km/h 14.5 km/h 86 % 0 mm 0 W/m2
05:55 8.4 °C 6.2 °C 1018.8 hPa NW 9.7 km/h 32.2 km/h 86 % 0 mm 0 W/m2
06:00 8.4 °C 6.2 °C 1018.5 hPa West 9.7 km/h 32.2 km/h 86 % 0 mm 0 W/m2
06:05 8.4 °C 6.2 °C 1018.5 hPa WNW 11.3 km/h 32.2 km/h 86 % 0 mm 0 W/m2
06:10 8.4 °C 6.2 °C 1018.5 hPa WNW 14.5 km/h 32.2 km/h 86 % 0 mm 0 W/m2
06:15 8.4 °C 6.2 °C 1018.8 hPa WNW 12.9 km/h 32.2 km/h 86 % 0 mm 0 W/m2
06:20 8.4 °C 6.2 °C 1018.8 hPa WNW 8 km/h 32.2 km/h 86 % 0 mm 0 W/m2
06:25 8.4 °C 6.2 °C 1018.8 hPa WNW 8 km/h 32.2 km/h 86 % 0 mm 0 W/m2
06:30 8.3 °C 6.3 °C 1018.8 hPa WNW 9.7 km/h 32.2 km/h 87 % 0 mm 0 W/m2
06:40 8.2 °C 6.3 °C 1018.8 hPa West 9.7 km/h 32.2 km/h 88 % 0 mm 0 W/m2
06:50 8.1 °C 6.3 °C 1018.8 hPa WNW 11.3 km/h 32.2 km/h 89 % 0 mm 0 W/m2
06:55 8 °C 6.4 °C 1018.8 hPa WNW 12.9 km/h 32.2 km/h 90 % 0 mm 0 W/m2
07:00 7.9 °C 6.3 °C 1018.8 hPa WNW 12.9 km/h 12.9 km/h 90 % 0 mm 0 W/m2
07:05 7.8 °C 6.4 °C 1019.2 hPa NW 9.7 km/h 32.2 km/h 91 % 0 mm 0 W/m2
07:10 7.8 °C 6.4 °C 1019.2 hPa WNW 6.4 km/h 32.2 km/h 91 % 0 mm 5 W/m2
07:15 7.8 °C 6.4 °C 1019.2 hPa WNW 6.4 km/h 32.2 km/h 91 % 0 mm 7 W/m2
07:25 7.8 °C 6.4 °C 1019.2 hPa WNW 9.7 km/h 11.3 km/h 91 % 0 mm 9 W/m2
07:30 7.8 °C 6.4 °C 1019.2 hPa West 11.3 km/h 32.2 km/h 91 % 0 mm 12 W/m2
07:35 7.8 °C 6.4 °C 1019.2 hPa West 12.9 km/h 32.2 km/h 91 % 0 mm 18 W/m2
07:40 7.8 °C 6.4 °C 1019.2 hPa WNW 9.7 km/h 9.7 km/h 91 % 0 mm 21 W/m2
07:45 7.8 °C 6.4 °C 1019.2 hPa WNW 8 km/h 12.9 km/h 91 % 0 mm 25 W/m2
07:50 7.9 °C 6.5 °C 1019.2 hPa West 8 km/h 32.2 km/h 91 % 0 mm 25 W/m2
07:55 7.9 °C 6.4 °C 1019.2 hPa NW 11.3 km/h 32.2 km/h 90 % 0 mm 32 W/m2
08:05 8 °C 6.4 °C 1019.5 hPa WNW 12.9 km/h 14.5 km/h 90 % 0 mm 37 W/m2
08:10 8.1 °C 6.5 °C 1019.5 hPa West 9.7 km/h 32.2 km/h 90 % 0 mm 42 W/m2
08:15 8.1 °C 6.5 °C 1019.9 hPa WNW 9.7 km/h 32.2 km/h 90 % 0 mm 53 W/m2
08:20 8.1 °C 6.6 °C 1019.9 hPa West 9.7 km/h 32.2 km/h 90 % 0 mm 60 W/m2
08:25 8.2 °C 6.7 °C 1019.9 hPa West 9.7 km/h 32.2 km/h 90 % 0 mm 83 W/m2
08:30 8.3 °C 6.7 °C 1019.9 hPa WNW 9.7 km/h 32.2 km/h 90 % 0 mm 81 W/m2
08:35 8.4 °C 6.8 °C 1019.9 hPa WNW 12.9 km/h 32.2 km/h 90 % 0 mm 79 W/m2
08:45 8.5 °C 6.9 °C 1019.9 hPa WNW 14.5 km/h 32.2 km/h 90 % 0 mm 95 W/m2
08:50 8.6 °C 6.8 °C 1019.9 hPa West 14.5 km/h 32.2 km/h 89 % 0 mm 91 W/m2
08:55 8.6 °C 6.9 °C 1019.9 hPa West 14.5 km/h 32.2 km/h 89 % 0 mm 88 W/m2
09:00 8.7 °C 6.9 °C 1019.9 hPa WNW 14.5 km/h 32.2 km/h 89 % 0 mm 93 W/m2
09:05 8.7 °C 7 °C 1019.9 hPa WNW 16.1 km/h 32.2 km/h 89 % 0 mm 91 W/m2
09:10 8.7 °C 7 °C 1019.9 hPa WNW 14.5 km/h 14.5 km/h 89 % 0 mm 88 W/m2
09:15 8.8 °C 7.1 °C 1019.9 hPa WNW 14.5 km/h 17.7 km/h 89 % 0 mm 77 W/m2
09:25 8.8 °C 6.9 °C 1020.2 hPa West 11.3 km/h 16.1 km/h 88 % 0 mm 69 W/m2
09:35 8.9 °C 7 °C 1020.2 hPa West 12.9 km/h 32.2 km/h 88 % 0 mm 100 W/m2
09:40 8.9 °C 7.1 °C 1020.2 hPa WNW 11.3 km/h 11.3 km/h 88 % 0 mm 123 W/m2
09:50 9.3 °C 7.2 °C 1020.2 hPa West 4.8 km/h 32.2 km/h 87 % 0 mm 185 W/m2
10:00 9.8 °C 7.6 °C 1020.2 hPa West 9.7 km/h 32.2 km/h 86 % 0 mm 246 W/m2
10:05 10 °C 7.4 °C 1020.2 hPa West 12.9 km/h 32.2 km/h 84 % 0 mm 218 W/m2
10:15 10.2 °C 7.4 °C 1020.2 hPa NW 12.9 km/h 32.2 km/h 83 % 0 mm 120 W/m2
10:20 10.1 °C 7.3 °C 1020.2 hPa West 12.9 km/h 32.2 km/h 83 % 0 mm 104 W/m2
10:25 9.9 °C 7.4 °C 1020.2 hPa West 12.9 km/h 32.2 km/h 84 % 0 mm 104 W/m2
10:35 9.9 °C 7.3 °C 1020.2 hPa WNW 8 km/h 32.2 km/h 84 % 0 mm 123 W/m2
10:40 9.9 °C 7.6 °C 1020.2 hPa WNW 11.3 km/h 11.3 km/h 85 % 0 mm 148 W/m2
10:45 10 °C 7.4 °C 1020.2 hPa West 11.3 km/h 32.2 km/h 84 % 0 mm 153 W/m2
10:50 10.1 °C 7.5 °C 1020.2 hPa West 12.9 km/h 32.2 km/h 84 % 0 mm 127 W/m2
10:55 10.1 °C 7.6 °C 1020.2 hPa West 12.9 km/h 32.2 km/h 84 % 0 mm 95 W/m2
11:05 10 °C 7.4 °C 1020.2 hPa WNW 14.5 km/h 16.1 km/h 84 % 0 mm 153 W/m2
11:10 10 °C 7.4 °C 1020.2 hPa WNW 16.1 km/h 32.2 km/h 84 % 0 mm 199 W/m2
11:15 10.1 °C 7.6 °C 1020.2 hPa WNW 16.1 km/h 32.2 km/h 84 % 0 mm 339 W/m2
11:20 10.3 °C 7.7 °C 1020.5 hPa WNW 16.1 km/h 16.1 km/h 84 % 0 mm 153 W/m2
11:25 10.3 °C 7.5 °C 1020.5 hPa WNW 14.5 km/h 22.5 km/h 83 % 0 mm 125 W/m2
11:30 10.2 °C 7.4 °C 1020.2 hPa West 16.1 km/h 16.1 km/h 83 % 0 mm 127 W/m2
11:35 10.3 °C 7.7 °C 1020.2 hPa WNW 12.9 km/h 19.3 km/h 84 % 0 mm 123 W/m2
11:40 10.2 °C 7.6 °C 1020.2 hPa WNW 12.9 km/h 32.2 km/h 84 % 0 mm 90 W/m2
11:50 10.2 °C 7.6 °C 1020.2 hPa West 14.5 km/h 14.5 km/h 84 % 0 mm 107 W/m2
11:55 10.2 °C 7.6 °C 1020.2 hPa WSW 12.9 km/h 32.2 km/h 84 % 0 mm 90 W/m2
12:00 10.1 °C 7.6 °C 1019.9 hPa West 11.3 km/h 32.2 km/h 84 % 0 mm 76 W/m2
12:05 10 °C 7.6 °C 1019.9 hPa WSW 12.9 km/h 32.2 km/h 85 % 0 mm 132 W/m2
12:10 9.9 °C 7.6 °C 1019.9 hPa West 12.9 km/h 32.2 km/h 85 % 0 mm 135 W/m2
12:15 10 °C 7.6 °C 1019.9 hPa SW 14.5 km/h 32.2 km/h 85 % 0 mm 93 W/m2
12:30 10 °C 7.6 °C 1019.5 hPa WSW 16.1 km/h 16.1 km/h 85 % 0 mm 141 W/m2
12:35 10 °C 7.8 °C 1019.9 hPa West 16.1 km/h 32.2 km/h 86 % 0 mm 149 W/m2
12:40 10 °C 7.8 °C 1019.9 hPa WSW 14.5 km/h 32.2 km/h 86 % 0 mm 125 W/m2
12:45 10 °C 7.8 °C 1019.9 hPa WNW 16.1 km/h 32.2 km/h 86 % 0 mm 153 W/m2
12:50 10 °C 7.8 °C 1019.5 hPa West 14.5 km/h 14.5 km/h 86 % 0 mm 81 W/m2
12:55 10 °C 7.8 °C 1019.5 hPa West 12.9 km/h 32.2 km/h 86 % 0 mm 97 W/m2
13:00 10 °C 7.8 °C 1019.5 hPa West 11.3 km/h 11.3 km/h 86 % 0 mm 79 W/m2
13:10 9.9 °C 7.7 °C 1019.5 hPa West 9.7 km/h 32.2 km/h 86 % 0 mm 74 W/m2
13:15 9.9 °C 7.7 °C 1019.5 hPa WSW 9.7 km/h 32.2 km/h 86 % 0 mm 76 W/m2
13:20 9.9 °C 7.7 °C 1019.2 hPa West 9.7 km/h 32.2 km/h 86 % 0 mm 70 W/m2
13:25 9.9 °C 7.7 °C 1019.2 hPa WSW 11.3 km/h 32.2 km/h 86 % 0 mm 91 W/m2
13:30 10 °C 7.9 °C 1019.2 hPa WSW 11.3 km/h 32.2 km/h 87 % 0 mm 70 W/m2
13:35 9.9 °C 7.9 °C 1019.2 hPa West 9.7 km/h 32.2 km/h 87 % 0 mm 69 W/m2
13:40 9.9 °C 7.8 °C 1019.2 hPa West 9.7 km/h 32.2 km/h 87 % 0 mm 65 W/m2
13:50 9.9 °C 7.8 °C 1019.2 hPa West 9.7 km/h 32.2 km/h 87 % 0 mm 79 W/m2
13:55 9.9 °C 7.8 °C 1019.2 hPa West 11.3 km/h 32.2 km/h 87 % 0 mm 79 W/m2
14:05 10 °C 7.9 °C 1019.2 hPa West 12.9 km/h 12.9 km/h 87 % 0 mm 70 W/m2
14:10 10 °C 7.9 °C 1019.2 hPa West 12.9 km/h 32.2 km/h 87 % 0 mm 84 W/m2
14:15 10 °C 7.9 °C 1019.2 hPa SW 12.9 km/h 32.2 km/h 87 % 0 mm 72 W/m2
14:20 10.1 °C 8 °C 1018.8 hPa WSW 12.9 km/h 32.2 km/h 87 % 0 mm 69 W/m2
14:25 10.1 °C 8 °C 1019.2 hPa WSW 11.3 km/h 32.2 km/h 87 % 0 mm 58 W/m2
14:35 10.1 °C 8 °C 1018.8 hPa WSW 11.3 km/h 32.2 km/h 87 % 0 mm 37 W/m2
14:40 10 °C 7.9 °C 1018.8 hPa WSW 12.9 km/h 32.2 km/h 87 % 0 mm 35 W/m2
14:45 10 °C 7.9 °C 1018.8 hPa WNW 11.3 km/h 32.2 km/h 87 % 0 mm 42 W/m2
14:50 9.9 °C 7.9 °C 1018.8 hPa West 12.9 km/h 32.2 km/h 87 % 0 mm 51 W/m2
14:55 10 °C 8.1 °C 1018.8 hPa WNW 12.9 km/h 32.2 km/h 88 % 0 mm 60 W/m2
15:00 10 °C 8.1 °C 1018.8 hPa West 11.3 km/h 11.3 km/h 88 % 0 mm 70 W/m2
15:10 10.2 °C 8.3 °C 1018.8 hPa West 9.7 km/h 32.2 km/h 88 % 0 mm 60 W/m2
15:15 10.2 °C 8.3 °C 1018.5 hPa West 11.3 km/h 32.2 km/h 88 % 0 mm 63 W/m2
15:20 10.2 °C 8.3 °C 1018.5 hPa WSW 11.3 km/h 11.3 km/h 88 % 0 mm 51 W/m2
15:25 10.2 °C 8.3 °C 1018.5 hPa SW 8 km/h 32.2 km/h 88 % 0 mm 54 W/m2
15:35 10.2 °C 8.3 °C 1018.8 hPa West 9.7 km/h 32.2 km/h 88 % 0 mm 46 W/m2
15:40 10.2 °C 8.3 °C 1018.8 hPa WSW 9.7 km/h 32.2 km/h 88 % 0 mm 37 W/m2
15:45 10.2 °C 8.3 °C 1018.8 hPa West 9.7 km/h 32.2 km/h 88 % 0 mm 30 W/m2
15:50 10.2 °C 8.3 °C 1018.5 hPa WSW 9.7 km/h 9.7 km/h 88 % 0 mm 23 W/m2
15:55 10.2 °C 8.3 °C 1018.5 hPa West 8 km/h 32.2 km/h 88 % 0 mm 21 W/m2
16:00 10.2 °C 8.3 °C 1018.8 hPa WSW 8 km/h 8 km/h 88 % 0 mm 23 W/m2
16:05 10.2 °C 8.3 °C 1018.5 hPa SSW 8 km/h 32.2 km/h 88 % 0 mm 25 W/m2
16:15 10.2 °C 8.3 °C 1018.5 hPa SW 6.4 km/h 32.2 km/h 88 % 0 mm 18 W/m2
16:25 10.2 °C 8.3 °C 1018.5 hPa WSW 6.4 km/h 6.4 km/h 88 % 0 mm 11 W/m2
16:30 10.2 °C 8.3 °C 1018.5 hPa SW 4.8 km/h 32.2 km/h 88 % 0 mm 11 W/m2
16:35 10.3 °C 8.4 °C 1018.5 hPa West 6.4 km/h 32.2 km/h 88 % 0 mm 12 W/m2
16:40 10.3 °C 8.4 °C 1018.5 hPa WSW 8 km/h 8 km/h 88 % 0 mm 16 W/m2
16:55 10.3 °C 8.4 °C 1018.2 hPa SW 4.8 km/h 4.8 km/h 88 % 0 mm 9 W/m2
17:05 10.3 °C 8.4 °C 1018.2 hPa SW 6.4 km/h 6.4 km/h 88 % 0 mm 5 W/m2
17:10 10.3 °C 8.6 °C 1017.8 hPa WSW 8 km/h 32.2 km/h 89 % 0 mm 5 W/m2
17:15 10.3 °C 8.6 °C 1017.8 hPa West 8 km/h 32.2 km/h 89 % 0 mm 0 W/m2
17:20 10.3 °C 8.6 °C 1017.8 hPa SW 9.7 km/h 32.2 km/h 89 % 0 mm 0 W/m2
17:25 10.3 °C 8.6 °C 1018.2 hPa West 9.7 km/h 32.2 km/h 89 % 0 mm 0 W/m2
17:30 10.2 °C 8.5 °C 1017.8 hPa West 11.3 km/h 11.3 km/h 89 % 0 mm 0 W/m2
17:35 10.2 °C 8.5 °C 1018.2 hPa West 9.7 km/h 32.2 km/h 89 % 0 mm 0 W/m2
17:50 10.1 °C 8.6 °C 1017.8 hPa West 8 km/h 8 km/h 90 % 0 mm 0 W/m2
17:55 10.1 °C 8.3 °C 1017.8 hPa WSW 9.7 km/h 12.9 km/h 89 % 0 mm 0 W/m2
18:00 10 °C 8.4 °C 1017.8 hPa WNW 11.3 km/h 11.3 km/h 90 % 0 mm 0 W/m2
18:05 9.9 °C 8.4 °C 1017.8 hPa West 9.7 km/h 16.1 km/h 90 % 0 mm 0 W/m2
18:10 9.9 °C 8.3 °C 1017.8 hPa SW 11.3 km/h 11.3 km/h 90 % 0 mm 0 W/m2
18:15 9.9 °C 8.3 °C 1017.8 hPa WNW 11.3 km/h 12.9 km/h 90 % 0 mm 0 W/m2
18:20 9.9 °C 8.3 °C 1017.8 hPa WSW 12.9 km/h 12.9 km/h 90 % 0 mm 0 W/m2
18:30 9.9 °C 8.3 °C 1017.8 hPa West 11.3 km/h 11.3 km/h 90 % 0 mm 0 W/m2
18:35 9.9 °C 8.3 °C 1018.2 hPa West 11.3 km/h 32.2 km/h 90 % 0 mm 0 W/m2
18:40 9.9 °C 8.4 °C 1018.2 hPa WNW 11.3 km/h 11.3 km/h 90 % 0 mm 0 W/m2
18:45 9.9 °C 8.6 °C 1018.2 hPa West 9.7 km/h 32.2 km/h 91 % 0 mm 0 W/m2
18:50 9.9 °C 8.6 °C 1018.2 hPa WSW 11.3 km/h 32.2 km/h 91 % 0 mm 0 W/m2
18:55 10 °C 8.4 °C 1018.2 hPa WSW 12.9 km/h 32.2 km/h 90 % 0 mm 0 W/m2
19:00 10 °C 8.4 °C 1017.8 hPa WSW 11.3 km/h 32.2 km/h 90 % 0 mm 0 W/m2
19:05 10.1 °C 8.5 °C 1017.8 hPa SW 11.3 km/h 32.2 km/h 90 % 0 mm 0 W/m2
19:10 10.1 °C 8.5 °C 1017.8 hPa SSW 8 km/h 8 km/h 90 % 0 mm 0 W/m2
19:20 10.1 °C 8.5 °C 1017.8 hPa WNW 3.2 km/h 3.2 km/h 90 % 0 mm 0 W/m2
19:25 10.1 °C 8.5 °C 1017.8 hPa WSW 4.8 km/h 4.8 km/h 90 % 0 mm 0 W/m2
19:30 10.1 °C 8.5 °C 1017.8 hPa West 4.8 km/h 32.2 km/h 90 % 0 mm 0 W/m2
19:35 10.1 °C 8.5 °C 1017.8 hPa SW 4.8 km/h 32.2 km/h 90 % 0 mm 0 W/m2
19:40 10.1 °C 8.5 °C 1017.8 hPa WSW 6.4 km/h 6.4 km/h 90 % 0 mm 0 W/m2
19:45 10.1 °C 8.5 °C 1017.5 hPa West 6.4 km/h 32.2 km/h 90 % 0 mm 0 W/m2
19:50 10.1 °C 8.5 °C 1017.5 hPa SW 4.8 km/h 32.2 km/h 90 % 0 mm 0 W/m2
20:00 10.1 °C 8.6 °C 1017.5 hPa SSW 3.2 km/h 3.2 km/h 90 % 0 mm 0 W/m2
20:05 10.1 °C 8.6 °C 1017.2 hPa South 3.2 km/h 32.2 km/h 90 % 0 mm 0 W/m2
20:10 10.1 °C 8.6 °C 1017.2 hPa West 6.4 km/h 32.2 km/h 90 % 0 mm 0 W/m2
20:15 10.2 °C 8.6 °C 1017.2 hPa WNW 9.7 km/h 32.2 km/h 90 % 0 mm 0 W/m2
20:20 10.2 °C 8.6 °C 1017.5 hPa West 11.3 km/h 32.2 km/h 90 % 0 mm 0 W/m2
20:25 10.2 °C 8.8 °C 1017.5 hPa West 14.5 km/h 32.2 km/h 91 % 0 mm 0 W/m2
20:30 10.2 °C 8.8 °C 1017.5 hPa West 12.9 km/h 12.9 km/h 91 % 0 mm 0 W/m2
20:40 10.2 °C 8.8 °C 1017.5 hPa SW 8 km/h 8 km/h 91 % 0 mm 0 W/m2
20:45 10.2 °C 8.8 °C 1017.5 hPa West 6.4 km/h 32.2 km/h 91 % 0 mm 0 W/m2
20:50 10.2 °C 8.8 °C 1017.2 hPa SW 3.2 km/h 32.2 km/h 91 % 0 mm 0 W/m2
20:55 10.2 °C 8.8 °C 1017.2 hPa WSW 6.4 km/h 32.2 km/h 91 % 0 mm 0 W/m2
21:00 10.3 °C 8.9 °C 1017.2 hPa West 12.9 km/h 32.2 km/h 91 % 0 mm 0 W/m2
21:05 10.4 °C 9 °C 1017.2 hPa WNW 12.9 km/h 32.2 km/h 91 % 0 mm 0 W/m2
21:10 10.4 °C 9 °C 1017.2 hPa West 11.3 km/h 11.3 km/h 91 % 0 mm 0 W/m2
21:15 10.4 °C 9 °C 1017.2 hPa WSW 11.3 km/h 32.2 km/h 91 % 0 mm 0 W/m2
21:20 10.4 °C 8.9 °C 1017.2 hPa SW 9.7 km/h 32.2 km/h 90 % 0 mm 0 W/m2
21:25 10.4 °C 8.9 °C 1017.2 hPa SW 6.4 km/h 32.2 km/h 90 % 0 mm 0 W/m2
21:30 10.4 °C 8.9 °C 1017.2 hPa SW 4.8 km/h 32.2 km/h 90 % 0 mm 0 W/m2
21:40 10.5 °C 9.1 °C 1017.2 hPa NW 3.2 km/h 32.2 km/h 91 % 0 mm 0 W/m2
21:45 10.6 °C 9.2 °C 1017.2 hPa West 6.4 km/h 32.2 km/h 91 % 0 mm 0 W/m2
21:50 10.7 °C 9.3 °C 1017.2 hPa WNW 11.3 km/h 11.3 km/h 91 % 0 mm 0 W/m2
21:55 10.8 °C 9.4 °C 1017.2 hPa West 9.7 km/h 20.9 km/h 91 % 0 mm 0 W/m2
22:00 10.8 °C 9.4 °C 1017.2 hPa WSW 9.7 km/h 32.2 km/h 91 % 0 mm 0 W/m2
22:05 10.9 °C 9.5 °C 1017.2 hPa West 12.9 km/h 32.2 km/h 91 % 0 mm 0 W/m2
22:10 10.9 °C 9.6 °C 1017.2 hPa West 12.9 km/h 12.9 km/h 91 % 0 mm 0 W/m2
22:20 11 °C 9.6 °C 1017.2 hPa WNW 12.9 km/h 12.9 km/h 91 % 0 mm 0 W/m2
22:25 11 °C 9.6 °C 1017.2 hPa WSW 11.3 km/h 32.2 km/h 91 % 0 mm 0 W/m2
22:30 11 °C 9.6 °C 1016.8 hPa WNW 9.7 km/h 32.2 km/h 91 % 0 mm 0 W/m2
22:35 11.1 °C 9.7 °C 1017.2 hPa West 12.9 km/h 32.2 km/h 91 % 0 mm 0 W/m2
22:40 11.1 °C 9.5 °C 1017.2 hPa West 12.9 km/h 32.2 km/h 90 % 0 mm 0 W/m2
22:45 11 °C 9.4 °C 1017.2 hPa West 9.7 km/h 32.2 km/h 90 % 0 mm 0 W/m2
22:50 11 °C 9.4 °C 1017.2 hPa West 8 km/h 32.2 km/h 90 % 0 mm 0 W/m2
22:55 11 °C 9.4 °C 1017.2 hPa WSW 8 km/h 32.2 km/h 90 % 0 mm 0 W/m2
23:05 11 °C 9.4 °C 1017.2 hPa WSW 9.7 km/h 32.2 km/h 90 % 0 mm 0 W/m2
23:15 11 °C 9.6 °C 1016.8 hPa SW 4.8 km/h 9.7 km/h 91 % 0 mm 0 W/m2
23:20 11.1 °C 9.7 °C 1016.8 hPa WSW 8 km/h 8 km/h 91 % 0 mm 0 W/m2
23:25 11.1 °C 9.7 °C 1016.5 hPa WSW 11.3 km/h 12.9 km/h 91 % 0 mm 0 W/m2
23:30 11 °C 9.6 °C 1016.5 hPa WSW 11.3 km/h 32.2 km/h 91 % 0 mm 0 W/m2
23:35 11.1 °C 9.7 °C 1016.5 hPa West 12.9 km/h 32.2 km/h 91 % 0 mm 0 W/m2
23:45 11.1 °C 9.7 °C 1016.5 hPa West 12.9 km/h 32.2 km/h 91 % 0 mm 0 W/m2
23:50 11.1 °C 9.7 °C 1016.5 hPa West 9.7 km/h 9.7 km/h 91 % 0 mm 0 W/m2
23:55 11.1 °C 9.7 °C 1016.5 hPa West 9.7 km/h 32.2 km/h 91 % 0 mm 0 W/m2
Delerius-Weather
Compliments of Weather Underground - 2 mb

Data updates at regular intervals.